Regional Weather Roundup
Issued by NWS

Home | Current Version | Previous Version | Graphics & Text | Print | Product List | Glossary On
Versions: 1 2 3 4 5 6 7 8 9 10 11 12 13 14 15 16 17 18 19 20 21 22 23 24 25 26 27 28 29 30 31 32 33 34 35 36 37 38 39 40 41 42 43 44 45 46 47 48 49 50
000
ASUS43 KOAX 290502
RWRNE

WEATHER ROUNDUP FOR NEBRASKA
NATIONAL WEATHER SERVICE OMAHA NE
1200 AM CDT WED JUL 29 2015

NOTES: SATELLITE DATA IS BEING USED TO AUGMENT CLOUD COVER ABOVE
       12000 FEET.
       "FAIR" INDICATES FEW OR NO CLOUDS BELOW 12,000 FEET WITH NO
       SIGNIFICANT WEATHER AND/OR OBSTRUCTIONS TO VISIBILITY.

  * THESE STATIONS DO NOT REPORT WEATHER SUCH AS RAIN...SNOW OR FOG.

NEZ001>004-019>022-054>056-290600-
NEBRASKA PANHANDLE

CITY           SKY/WX    TMP DP  RH WIND       PRES   REMARKS
SCOTTSBLUFF    CLEAR     58  44  60 NE9       30.22R
ALLIANCE       CLEAR     54  43  66 N3        30.21R
CHADRON        CLEAR     53  43  68 CALM      30.21R
KIMBALL        PTCLDY    57  46  66 SW7       30.26R
SIDNEY         PTCLDY    58  40  51 SE3       30.24R
$$

NEZ057>060-069>072-079>082-290600-
SOUTHWEST NEBRASKA

CITY           SKY/WX    TMP DP  RH WIND       PRES   REMARKS
NORTH PLATTE   CLEAR     59  50  72 W3        30.14R
IMPERIAL       CLEAR     62  49  62 CALM      30.17R
MCCOOK         CLEAR     64  52  64 N9        30.12R
$$

NEZ005>010-023>029-035>040-094-290600-
NORTH CENTRAL NEBRASKA

CITY           SKY/WX    TMP DP  RH WIND       PRES   REMARKS
VALENTINE      CLEAR     64  46  52 N8        30.15R
AINSWORTH      CLEAR     59  50  71 N8        30.15R
BROKEN BOW     CLEAR     62  47  57 N7        30.12R
O`NEILL        CLEAR     62  59  90 CALM      30.11R
ORD            CLEAR     60  56  86 CALM      30.09R
$$

NEZ041-046>049-061>064-073>077-083>087-290600-
SOUTH CENTRAL NEBRASKA

CITY           SKY/WX    TMP DP  RH WIND       PRES   REMARKS
GRAND ISLAND   CLEAR     61  57  87 NE6       30.08R
AURORA         CLEAR     63  60  91 N7        30.07R
HASTINGS       CLEAR     66  57  72 NE7       30.08R
KEARNEY *      CLEAR     66  55  68 N6        30.09R
$$

NEZ011>018-030>034-042>045-290600-
NORTHEAST NEBRASKA

CITY           SKY/WX    TMP DP  RH WIND       PRES   REMARKS
NORFOLK        CLEAR     61  58  90 CALM      30.06R
BLAIR          PTCLDY    69  62  76 N6        30.04R
COLUMBUS *     CLEAR     61  55  82 N5        30.06R
FREMONT        CLEAR     69  62  79 CALM      30.04R
TEKAMAH        CLEAR     67  64  90 N5        30.03R
$$

NEZ050>053-065>068-078-088>093-290600-
SOUTHEAST NEBRASKA

CITY           SKY/WX    TMP DP  RH WIND       PRES   REMARKS
LINCOLN        PTCLDY    68  63  84 N7        30.04R
OMAHA EPPLEY   MOCLDY    73  64  73 N7        30.03R
FALLS CITY     LGT RAIN  72  71  97 N9G20     30.01R FOG
$$

NEZ044-045-051>053-067-290600-
OMAHA AREA

CITY           SKY/WX    TMP DP  RH WIND       PRES   REMARKS
OMAHA EPPLEY   MOCLDY    73  64  73 N7        30.03R
BLAIR          PTCLDY    69  62  76 N6        30.04R
FREMONT        CLEAR     69  62  79 CALM      30.04R
OFFUTT AFB     CLOUDY    76  62  62 NE8       30.03R
$$


USA.gov is the U.S. government's official web portal to all federal, state and local government web resources and services.